#timestamp,LO_Frequency,Hit,StdDev 
1657825215.0,286047004.2,Y
1657825215.9,286047004.2,P
1657825235.8,286047003.0,N
1657825255.6,286047007.6,P
1657825275.4,286047007.3,N
1657825295.3,286047006.5,N
1657825315.1,286047008.9,Y
1657825335.8,286047004.2,P
1657825355.7,286047003.1,P
1657825375.5,286047002.9,P
1657825395.4,286047005.9,Y
1657825415.2,286047001.8,P
1657825435.0,286047003.8,P
1657825435.9,286047003.8,P
1657825455.8,286047002.2,N
1657825475.6,286047003.1,Y
1657825495.5,286047004.1,P
1657825515.3,286047002.9,P
1657825535.1,286047003.4,P
1657825555.9,286047004.1,Y
1657825575.7,286047000.6,P
1657825595.5,286047006.0,P
1657825615.4,286047006.1,N
1657825635.2,286047008.0,Y
1657825655.1,286047005.5,P
1657825656.0,286047005.5,P
1657825675.8,286047001.3,N
1657825695.6,286046999.7,N
1657825715.5,286047001.0,N
1657825735.3,286046999.8,N
1657825755.1,286047004.3,N
1657825775.9,286047002.0,N
1657825795.7,286047001.3,N
1657825815.6,286047005.9,N
1657825835.4,286047004.1,N
1657825855.2,286047002.9,N
1657825875.1,286047004.5,N
1657825876.0,286047004.5,N
1657825895.8,286047006.4,Y
1657825915.6,286047003.7,P
1657825935.5,286047006.0,P
1657825955.3,286047003.1,N
1657825975.2,286047005.1,Y
1657825995.9,286047004.0,P
1657826015.7,286047002.0,P
1657826035.6,286047001.3,N
1657826055.4,286047005.3,Y
1657826075.3,286047003.6,P
1657826095.1,286047002.9,P
1657826096.0,286047002.9,P
1657826115.8,286047008.7,Y
1657826135.7,286047007.5,P
1657826155.5,286047006.6,N
1657826175.4,286047011.4,P
1657826195.2,286047009.7,Y
1657826215.0,286047005.9,P
1657826215.9,286047005.9,P
1657826235.8,286047004.3,P
1657826255.6,286047006.8,Y
1657826275.5,286047005.7,P
1657826295.3,286047001.8,P
1657826315.1,286047003.4,N
1657826335.9,286047003.7,N
1657826355.7,286047001.4,N
1657826375.6,286047003.8,N
1657826395.4,286047006.6,Y
1657826415.2,286047002.7,P
1657826435.1,286047005.5,P
1657826436.0,286047005.5,P
1657826455.8,286047005.5,Y
1657826475.6,286046998.0,P
1657826495.5,286046995.4,N
1657826515.3,286046996.3,N
1657826535.2,286046997.4,N
1657826555.9,286046998.3,N
1657826575.7,286047000.5,N
1657826595.6,286047000.5,N
1657826615.4,286047002.8,N
1657826635.3,286047004.1,N
1657826655.1,286047001.9,N
1657826656.0,286047001.9,N
1657826675.8,286046998.5,N
1657826695.7,286046998.1,N
1657826715.5,286047000.7,N
1657826735.3,286047001.9,N
1657826755.2,286047004.2,N
1657826775.0,286047003.3,N
1657826775.9,286047003.3,N
1657826795.8,286047005.4,N
1657826815.6,286047003.3,N
1657826835.4,286047007.4,N
1657826855.3,286047009.6,Y
1657826875.1,286047011.5,P
1657826895.9,286047011.7,N
1657826915.7,286047009.4,N
1657826935.5,286047010.8,N
1657826955.4,286047009.0,N
1657826975.2,286047008.4,N
1657826995.0,286047006.3,N
1657826996.0,286047006.3,N
1657827015.8,286047007.5,N
1657827035.6,286047002.9,N
1657827055.5,286047002.5,N
1657827075.3,286047004.3,N
1657827095.1,286047003.1,N
1657827115.9,286047004.6,N
1657827135.7,286047012.4,Y
1657827155.6,286047006.5,P
1657827175.4,286047010.1,P
1657827195.2,286047011.4,P
1657827215.1,286047011.2,Y
1657827216.0,286047011.2,P
1657827235.8,286047002.7,N
1657827255.7,286047003.6,N
1657827275.5,286047006.6,N
1657827295.3,286047007.7,N
1657827315.2,286047013.9,Y
1657827335.0,286047004.7,P
1657827335.9,286047004.7,P
1657827355.7,286047003.9,P
1657827375.6,286047003.1,N
1657827395.4,286047003.4,N
1657827415.3,286047006.0,Y
1657827435.1,286047002.2,P
1657827436.0,286047002.2,N
1657827455.8,286047005.9,P
1657827475.7,286047004.4,N
1657827495.5,286047004.2,N
1657827515.3,286047007.3,Y
1657827535.2,286047007.5,P
1657827555.0,286047005.2,N
1657827555.9,286047005.2,P
1657827575.8,286047008.7,Y
1657827595.6,286047007.1,P
1657827615.4,286047008.4,P
1657827635.3,286047008.4,P
1657827655.1,286047008.5,Y
1657827675.9,286047001.9,P
1657827695.7,286047001.9,N
1657827715.5,286047011.9,P
1657827735.4,286046998.8,N
1657827755.2,286046992.3,N
1657827775.0,286046987.6,N
1657827775.9,286046987.6,N
1657827795.8,286046988.9,N
1657827815.6,286046992.4,N
1657827835.5,286046997.1,N
1657827855.3,286046997.2,N
1657827875.1,286046996.2,N
1657827895.9,286046996.0,N
1657827915.7,286046998.6,N
1657827935.5,286047004.0,N
1657827955.4,286047009.0,N
1657827975.2,286047010.4,N
1657827995.0,286047006.9,N
1657827996.0,286047006.9,N
1657828015.8,286047003.8,N
1657828035.6,286047006.3,N
1657828055.5,286047010.0,N
1657828075.3,286047015.0,N
1657828095.1,286047013.5,N
1657828115.9,286047011.2,N
1657828135.7,286047013.1,N
1657828155.6,286047016.2,N
1657828175.4,286047022.0,N
1657828195.2,286047023.2,N
1657828215.1,286047020.5,N
1657828216.0,286047020.5,N
1657828235.8,286047019.7,N
1657828255.7,286047021.8,N
1657828275.5,286047018.8,N
1657828295.3,286047012.2,N
1657828315.2,286047012.8,N
1657828335.0,286047015.4,N
1657828335.9,286047015.4,N
1657828355.8,286047018.6,N
1657828375.6,286047015.9,N
1657828395.4,286047018.8,N
1657828415.3,286047019.7,N
1657828435.1,286047021.6,Y
1657828455.8,286047005.4,P
1657828475.7,286047001.4,N
1657828495.5,286047002.7,N
1657828515.3,286047003.4,N
1657828535.2,286047005.7,N
1657828555.0,286047007.9,N
1657828555.9,286047007.9,N
1657828575.8,286047012.2,Y
1657828595.6,286047005.0,P
1657828615.4,286047008.4,P
1657828635.3,286047007.7,P
1657828655.1,286047010.8,Y
1657828675.9,286047005.5,P
1657828695.7,286047005.1,P
1657828715.5,286047004.8,P
1657828735.4,286047007.4,Y
1657828755.2,286046995.1,P
1657828775.0,286046990.7,N
1657828775.9,286046990.7,N
1657828795.8,286046993.2,N
